Total_Precipitation_Accumulation
1.36 1.41 1.44 1.46 1.59 1.79 1.96 2.06 2.01 2.05 2.11 2.06 1.92 1.83 1.78 1.69 1.68 1.69 1.66 1.69 1.74 1.73 1.73 1.70 1.61 1.54 1.61 1.63 1.63 1.68 1.77 1.90 1.84 1.34 1.12 1.08 1.10 1.05 1.04 0.97 0.89 0.87 0.84
1.42 1.41 1.44 1.43 1.41 1.51 1.63 1.83 1.90 1.98 2.00 2.04 1.98 1.85 1.76 1.66 1.57 1.57 1.52 1.49 1.51 1.54 1.54 1.58 1.54 1.48 1.47 1.50 1.53 1.50 1.48 1.51 1.60 1.44 1.13 1.01 0.98 0.91 0.91 0.91 0.87 0.82 0.75
1.41 1.44 1.42 1.39 1.34 1.32 1.40 1.56 1.67 1.77 1.81 1.86 1.94 1.88 1.74 1.64 1.52 1.46 1.42 1.41 1.39 1.36 1.38 1.44 1.47 1.50 1.49 1.45 1.44 1.42 1.40 1.40 1.49 1.52 1.24 1.02 0.94 0.90 0.89 0.86 0.84 0.83 0.77
1.34 1.43 1.46 1.43 1.39 1.33 1.38 1.44 1.52 1.57 1.64 1.66 1.73 1.83 1.84 1.76 1.64 1.51 1.43 1.39 1.39 1.35 1.33 1.39 1.41 1.39 1.35 1.30 1.33 1.30 1.33 1.39 1.42 1.50 1.41 1.20 1.03 0.91 0.95 0.96 0.94 0.85 0.82
1.19 1.35 1.43 1.50 1.56 1.58 1.52 1.47 1.46 1.46 1.52 1.55 1.57 1.68 1.75 1.77 1.72 1.62 1.50 1.45 1.45 1.45 1.39 1.36 1.37 1.42 1.36 1.29 1.28 1.26 1.29 1.38 1.48 1.55 1.47 1.27 1.10 0.99 0.92 0.86 0.93 0.92 0.89
0.99 1.12 1.24 1.38 1.53 1.68 1.71 1.64 1.56 1.48 1.48 1.54 1.53 1.57 1.63 1.67 1.87 1.83 1.62 1.52 1.49 1.42 1.35 1.26 1.24 1.33 1.32 1.33 1.32 1.29 1.34 1.44 1.54 1.60 1.51 1.31 1.03 0.92 0.93 1.05 1.17 1.31 1.23
0.85 0.90 1.02 1.21 1.35 1.50 1.68 1.76 1.66 1.60 1.64 1.65 1.65 1.65 1.67 1.76 1.86 1.70 1.62 1.45 1.40 1.31 1.22 1.16 1.11 1.09 1.17 1.10 1.16 1.23 1.25 1.35 1.43 1.44 1.39 1.14 1.00 0.94 1.12 1.30 1.32 1.35 1.20
0.84 0.87 0.97 1.07 1.20 1.39 1.56 1.70 1.77 1.75 1.81 1.81 1.75 1.71 1.71 1.74 1.77 1.65 1.59 1.39 1.29 1.19 1.10 1.03 1.02 1.00 1.02 1.11 1.18 1.24 1.15 1.08 1.08 1.04 1.03 0.98 0.98 1.05 1.27 1.52 1.63 1.68 1.45
0.80 0.85 0.90 0.99 1.09 1.25 1.44 1.60 1.72 1.78 1.84 1.88 1.77 1.63 1.52 1.54 1.57 1.45 1.44 1.33 1.31 1.20 1.10 1.05 1.04 0.98 1.09 1.26 1.31 1.32 1.16 1.00 1.00 1.06 1.12 1.12 1.17 1.23 1.32 1.59 1.85 2.00 1.76
0.79 0.83 0.86 0.94 1.02 1.13 1.28 1.46 1.61 1.70 1.73 1.69 1.64 1.53 1.41 1.36 1.43 1.33 1.31 1.28 1.28 1.19 1.12 1.09 1.17 1.12 1.22 1.32 1.25 1.26 1.19 0.99 0.93 0.93 0.97 0.99 0.93 0.97 1.16 1.31 1.74 2.21 1.95
0.75 0.81 0.85 0.91 0.98 1.06 1.12 1.21 1.34 1.42 1.43 1.38 1.34 1.33 1.30 1.29 1.31 1.24 1.21 1.20 1.20 1.21 1.19 1.11 1.09 1.29 1.37 1.39 1.27 1.08 1.10 1.17 1.06 0.96 0.93 0.93 0.92 0.92 0.95 1.01 1.29 1.99 2.35
0.73 0.78 0.85 0.90 0.90 0.91 0.95 1.01 1.05 1.09 1.14 1.15 1.14 1.14 1.17 1.22 1.23 1.22 1.23 1.26 1.27 1.18 1.12 1.03 1.07 1.30 1.31 1.27 1.18 1.18 1.28 1.21 1.03 1.05 1.04 1.00 0.97 0.96 0.97 1.01 1.08 1.28 1.63
0.72 0.75 0.79 0.81 0.82 0.84 0.86 0.89 0.94 0.97 1.00 1.05 1.05 1.05 1.06 1.06 1.12 1.23 1.21 1.26 1.30 1.18 1.11 1.18 1.22 1.24 1.19 1.14 1.18 1.19 1.14 1.06 1.10 1.20 1.15 1.03 0.98 1.01 1.06 1.12 1.15 1.17 1.27
0.68 0.69 0.71 0.71 0.73 0.76 0.80 0.85 0.92 0.97 0.95 0.94 0.96 0.97 0.96 0.95 0.93 0.99 1.08 1.14 1.20 1.18 1.18 1.21 1.20 1.16 1.14 1.15 1.21 1.15 1.03 1.06 1.23 1.29 1.19 1.09 1.08 1.14 1.17 1.23 1.38 1.42 1.52
0.62 0.61 0.61 0.63 0.67 0.73 0.77 0.84 0.92 0.98 1.03 1.02 0.95 0.91 0.93 0.95 0.96 1.08 1.11 1.06 1.13 1.19 1.19 1.09 1.04 1.05 1.08 1.06 1.04 1.05 1.05 1.09 1.18 1.18 1.23 1.23 1.22 1.30 1.37 1.44 1.61 1.70 1.74
0.61 0.60 0.61 0.60 0.63 0.70 0.75 0.82 0.93 0.98 1.03 1.05 1.05 0.98 0.93 0.98 1.03 1.06 1.08 1.12 1.19 1.24 1.16 1.06 1.01 0.98 0.99 0.99 0.98 0.98 1.01 1.05 1.14 1.28 1.34 1.36 1.41 1.48 1.57 1.61 1.74 1.86 1.78
0.62 0.63 0.63 0.62 0.64 0.68 0.71 0.73 0.80 0.85 0.89 0.95 0.99 1.00 0.98 0.99 0.98 1.00 1.06 1.09 1.06 1.06 0.97 0.93 0.93 0.92 0.92 0.93 0.97 1.01 1.03 1.03 1.18 1.39 1.51 1.56 1.64 1.69 1.74 1.79 1.80 1.78 1.63
0.60 0.64 0.61 0.62 0.65 0.66 0.69 0.71 0.70 0.70 0.74 0.80 0.86 0.91 0.93 0.94 0.94 0.97 1.03 1.02 0.96 0.93 0.87 0.86 0.86 0.86 0.91 0.95 1.00 1.09 1.15 1.17 1.28 1.43 1.54 1.60 1.71 1.84 1.88 1.79 1.70 1.64 1.54
0.55 0.58 0.58 0.59 0.62 0.64 0.65 0.69 0.68 0.65 0.66 0.66 0.66 0.75 0.86 0.88 0.91 0.96 0.97 0.91 0.90 0.88 0.84 0.83 0.83 0.87 0.93 1.00 1.06 1.15 1.26 1.37 1.45 1.61 1.66 1.67 1.74 1.93 1.90 1.69 1.54 1.45 1.39
0.55 0.59 0.57 0.56 0.58 0.61 0.62 0.64 0.66 0.62 0.61 0.59 0.61 0.65 0.71 0.79 0.81 0.81 0.84 0.86 0.90 0.91 0.88 0.88 0.87 0.90 0.97 1.04 1.10 1.21 1.35 1.41 1.50 1.60 1.65 1.68 1.74 1.85 1.80 1.55 1.36 1.32 1.24
0.53 0.56 0.57 0.53 0.56 0.60 0.62 0.64 0.66 0.66 0.63 0.59 0.60 0.68 0.82 0.83 0.79 0.76 0.79 0.83 0.88 0.92 0.95 0.98 0.97 0.98 1.02 1.09 1.17 1.23 1.36 1.43 1.51 1.63 1.66 1.62 1.61 1.56 1.39 1.32 1.27 1.25 1.26
0.49 0.50 0.50 0.51 0.53 0.57 0.62 0.64 0.65 0.65 0.64 0.61 0.58 0.65 0.76 0.71 0.67 0.69 0.72 0.74 0.76 0.81 0.89 1.01 1.04 1.03 1.15 1.35 1.52 1.61 1.53 1.46 1.48 1.61 1.64 1.51 1.42 1.32 1.26 1.29 1.27 1.28 1.30
0.45 0.46 0.47 0.49 0.52 0.57 0.60 0.58 0.60 0.62 0.63 0.61 0.59 0.58 0.61 0.62 0.62 0.63 0.65 0.64 0.66 0.70 0.75 0.87 0.97 0.97 1.02 1.26 1.55 1.91 2.04 1.81 1.68 1.75 1.81 1.63 1.42 1.33 1.35 1.36 1.28 1.28 1.25
0.43 0.46 0.48 0.49 0.52 0.54 0.56 0.57 0.58 0.60 0.61 0.60 0.57 0.56 0.56 0.58 0.59 0.58 0.59 0.59 0.61 0.63 0.67 0.77 0.87 0.91 0.96 1.19 1.43 1.61 1.77 1.90 2.08 2.07 1.98 1.94 1.67 1.44 1.39 1.36 1.24 1.17 1.17
0.45 0.47 0.49 0.50 0.51 0.53 0.54 0.55 0.56 0.57 0.58 0.58 0.56 0.56 0.55 0.56 0.56 0.55 0.55 0.56 0.58 0.59 0.58 0.65 0.79 0.90 0.98 1.14 1.33 1.47 1.59 1.74 1.87 1.91 1.85 1.76 1.56 1.37 1.34 1.32 1.21 1.13 1.13
0.43 0.46 0.48 0.50 0.51 0.51 0.52 0.54 0.55 0.55 0.57 0.57 0.57 0.57 0.58 0.58 0.57 0.56 0.56 0.58 0.60 0.57 0.55 0.57 0.64 0.79 0.93 1.08 1.16 1.32 1.48 1.45 1.30 1.26 1.47 1.59 1.47 1.28 1.27 1.35 1.24 1.19 1.16